Location: Ch�teau-Arnoux
(44.0814°N, 6.0027°E)
Time: 01:50:44
(UTC+00:00)

Cosmos 1802 Rocket - Visible Passes

Search period start: 28 February 2020 00:00
Search period end: 09 March 2020 00:00
Orbit: 955 x 1010 km, 82.9° (Epoch: 27 February)

Date Brightness Start Highest point End Pass type
(mag) Time Alt. Az. Time Alt. Az. Time Alt. Az.
28 Feb 4.8 03:30:36 10° N 03:36:53 52° ENE 03:43:05 10° SSE visible
28 Feb 4.9 05:16:51 10° NNW 05:22:02 26° W 05:27:09 10° SW visible
28 Feb 6.9 18:52:39 10° W 18:55:42 14° WNW 18:58:48 10° NNW visible
29 Feb 6.5 02:14:16 10° NNE 02:18:08 16° ENE 02:21:58 10° E visible
29 Feb 4.0 03:58:08 10° N 04:04:36 88° W 04:10:59 10° S visible
29 Feb 5.5 05:46:01 10° NW 05:49:08 14° WNW 05:52:13 10° WSW visible
01 Mar 5.8 02:40:50 10° NNE 02:46:19 29° ENE 02:51:44 10° SE visible
01 Mar 4.2 04:25:58 10° NNW 04:32:07 49° W 04:38:11 10° SSW visible
01 Mar 6.4 17:59:40 10° WSW 18:04:49 25° WNW 18:10:02 10° NNW visible
02 Mar 4.8 03:08:01 10° N 03:14:16 51° ENE 03:20:25 10° SSE visible
02 Mar 4.8 04:54:12 10° NNW 04:59:26 27° W 05:04:38 10° SW visible
02 Mar 6.9 18:29:47 10° W 18:33:03 14° WNW 18:36:20 10° NNW visible
03 Mar 6.5 01:51:46 10° NNE 01:55:29 16° ENE 01:59:10 10° E visible
03 Mar 3.9 03:35:32 10° N 03:42:00 89° E 03:48:21 10° S visible
03 Mar 5.5 05:23:17 10° NW 05:26:33 15° WNW 05:29:48 10° WSW visible
04 Mar 5.8 02:18:16 10° NNE 02:23:41 28° ENE 02:29:00 10° SE visible
04 Mar 4.1 04:03:21 10° NNW 04:09:31 51° W 04:15:36 10° SSW visible
05 Mar 4.8 02:45:26 10° N 02:51:39 49° ENE 02:54:56 26° SE visible
05 Mar 4.8 04:31:33 10° NNW 04:36:50 28° W 04:39:32 21° WSW visible
05 Mar 6.8 18:06:57 10° W 18:10:24 15° WNW 18:13:52 10° NNW visible
06 Mar 6.5 01:29:17 10° NNE 01:32:50 15° ENE 01:35:37 12° E visible
06 Mar 3.9 03:12:56 10° N 03:19:23 87° E 03:20:20 67° SSE visible
06 Mar 5.4 05:00:34 10° NW 05:03:58 15° WNW 05:05:03 15° W visible
07 Mar 5.8 01:55:43 10° NNE 02:01:02 27° ENE 02:01:53 26° E visible
07 Mar 4.1 03:40:44 10° NNW 03:46:38 52° W 03:46:38 52° W visible
08 Mar 4.9 02:22:51 10° N 02:28:31 46° ENE 02:28:31 46° ENE visible
08 Mar 4.9 04:08:54 10° NNW 04:13:17 28° WNW 04:13:17 28° WNW visible
